Terug naar catalogus

STARLINK-30375

ActiefCommunicatieVLEO
NORAD 57732·PAYLOAD·🇺🇸 United States

Gelanceerd Sep 1, 2023 vanaf Cape Canaveral Space Force Station

Loading…

Volgende Passages (komende 24 uur)

TLE

VersSource: CelesTrak SupGP

Epoch: Sep 14, 2026, 22:34 UTC

1 57732C 23131A   26257.94076389 -.00009570  00000+0 -34670-3 0  2574
2 57732  43.0016 168.8243 0001339 259.1505 126.3568 15.27577522    10

Volg STARLINK-30375 in realtime met AllMySat

Download on the App Store